sat.trackr.live / text

‹ back to catalog

KUIPER-00065

NORAD 64525 · 2025-134AB

PAYLOAD ACTIVE UNKNOWN

§ Identity

Operator
Country
US
Launch date
2025-06-23
Launch site
AFETR
Launch vehicle
Mass (kg)
RCS (m²)

External: N2YO · Heavens-Above · Gunter

§ Orbital elements

Epoch: 2026-09-21T17:29:33.151488Z

Period
97.30 min
Inclination
51.9035°
Eccentricity
0.0000697
Mean motion
14.79939265 rev/d
Perigee alt
629.0 km
Apogee alt
630.0 km
Semi-major
7,007.7 km
B*
2.3822e-4
RAAN
93.8636°
Arg perigee
113.0502°
Mean anomaly
247.0534°
Rev number
6,898

§ Raw data

KUIPER-000651 64525U 25134AB  26264.72885592  .00001596  00000+0  23822-3 0  99932 64525  51.9035  93.8636 0000697 113.0502 247.0534 14.79939265 68987

JSON: /api/v1/satellites/64525 · /tle

For live sub-satellite position, see the globe view (requires WebGL).

§ Visibility from observer

Set your observer location to see the next 7 days of passes ≥ 10°. The values pass through the URL so the page stays shareable.

No JS? Fill the form by hand. The geolocation button needs JavaScript.